SCP
0 0 0 0 0 0 0 0 0 0 0 0 0 0 0 0 0 0 0 0 0 0 0 0 0 0 0 0 0 0 0 0 0 0 0 0 0 0 0 0 0 0 0 0 0 0 0 0 0 0 0 0 -0 0
0 0 0 0 0 0 0 0 0 0 0 0 0 0 0 0 0 0 0 0 0 0 0 0 0 0 0 0 0 0 0 0 0 0 0 0 0 0 0 0 0 0 0 0 0 0 0 0 0 0 0 0 0 0
0 0 0 0 0 0 0 0 0 0 0 0 0 0 0 0 0 0 0 0 0 0 0 0 0 0 0 0 0 0 0 0 0 0 0 0 0 0 0 0 0 0 0 0 0 0 0 0 0 0 0 0 0 0
0 0 0 0 0 0 0 0 0 0 0 0 0 0 0 0 0 0 0 0 0 0 0 0 0 0 0 0 0 0 0 0 0 0 0 0 0 0 0 0 0 0 0 0 0 0 0 0 0 0 0 0 0 0
0 0 0 0 0 0 0 0 0 0 0 0 0 0 0 0 0 0 0 0 0 0 0 0 0 0 0 0 0 0 0 0 0 0 0 0 0 0 0 0 0 0 0 0 0 0 0 0 0 0 0 0 0 0
0 0 0 0 0 0 0 0 0 0 0 0 0 0 0 0 0 0 0 0 0 0 0 0 0 0 0 0 0 0 0 0 0 0 0 0 0 0 0 0 0 0 0 0 0 0 0 0 0 0 0 0 0 0
0 0 0 0 0 0 0 0 0 0 0 0 0 0 0 0 0 0 0 0 0 0 0 0 0 0 0 0 0 0 0 0 0 0 0 0 0 0 0 0 0 0 0 0 0 0 0 0 0 0 0 0 0 0
0 0 0 0 0 0 0 0 0 0 0 0 0 0 0 0 0 0 0 0 0 0 0 0 0 0 0 0 0 0 0 0 0 0 0 0 0 0 0 0 0 0 0 0 0 0 0 0 0 0 0 0 0 0
0 0 0 0 0 0 0 0 0 0 0 0 0 0 0 0 0 0 0 0 0 0 0 0 0 0 0 0 0 0 0 0 0 0 0 0 0 0 0 0 0 0 0 0 0 0 0 0 0 0 0 0 0 0
0 0 0 0 0 0 0 0 0 0 0 0 0 0 0 0 0 0 0 0 0 0 0 0 0 0 0 0 0 0 0 0 0 0 0 0 0 0 0 0 0 0 0 0 0 0 0 0 0 0 0 0 0 0
0 0 0 0 0 0 0 0 0 0 0 0 0 0 0 0 0 0 0 0 0 0 0 0 0 0 0 0 0 0 0 0 0 0 0 0 0 0 0 0 0 0 0 0 0 0 0 0 0 0 0 0 0 0
0 0 0 0 0 0 0 0 0 0 0 0 0 0 0 0 0 0 0 0 0 0 0 0 0 0 0 0 0 0 0 0 0 0 0 0 0 0 0 0 0 0 0 0 0 0 0 0 0 0 0 0 0 0
0 0 0 0 0 0 0 0 0 0 0 0 0 0 0 0 0 0 0 0 0 0 0 0 0 0 0 0 0 0 0 0 0 0 0 0 0 0 0 0 0 0 0 0 0 0 0 0 0 0 0 0 0 0
0 0 0 0 0 0 0 0 0 0 0 0 0 0 0 0 0 0 0 0 0 0 0 0 0 0 0 0 0 0 0 0 0 0 0 0 0 0 0 0 0 0 0 0 0 0 0 0 0 0 0 0 0 0
0 0 0 0 0 0 0 0 0 0 0 0 0 0 0 0 0 0 0 0 0 0 0 0 0 0 0 0 0 0 0 0 0 0 0 0 0 0 0 0 0 0 0 0 0 0 0 0 0 0 0 0 0 0
0 0 0 0 0 0 0 0 0 0 0 0 0 0 0 0 0 0 0 0 0 0 0 0 0 0 0 0 0 0 0 0 0 0 0 0 0 0 0 0 0 0 0 0 0 0 0 0 0 0 0 0 0 0
0 0 0 0 0 0 0 0 0 0 0 0 0 0 0 0 0 0 0 0 0 0 0 0 0 0 0 0 0 0 0 0 0 0 0 0 0 0 0 0 0 0 0 0 0 0 0 0 0 0 0 0 0 0
0 0 0 0 0 0 0 0 0 0 0 0 0 0 0 0 0 0 0 0 0 0 0 0 0 0 0 0 0 0 0 0 0 0 0 0 0 0 0 0 0 0 0 0 0 0 0 0 0 0 0 0 0 0
0 0 0 0 0 0 0 0 0 0 0 0 0 0 0 0 0 0 0 0 0 0 0 0 0 0 0 0 0 0 0 0 0 0 0 0 0 0 0 0 0 0 0 0 0 0 0 0 0 0 0 0 0 0
0 0 0 0 0 0 0 0 0 0 0 0 0 0 0 0 0 0 0 0 0 0 0 0 0 0 0 0 0 0 0 0 0 -0 0 0 0 0 0 0 0 0 0 0 0 0 0 0 0 0 0 0 0 0
0 0 0 0 0 0 0 0 0 0 0 0 0 0 0 0 0 0 0 0 0 0 0 0 0 0 0 0 0 0 0 0 0 0 0 0 0 0 0 0 0 0 0 0 0 0 0 0 0 0 0 0 0 0
0 0 0 0 0 0 0 0 0 0 0 0 0 0 0 0 0 -0 -0 0 0 0 0 0 0 0 0 0 0 0 0 0 0 0 0 0 0 0 0 0 0 0 0 0 0 0 0 0 0 0 0 0 0 0
0 0 0 0 0 0 0 0 0 0 0 0 0 0 0 0 0 0 0 0 0 0 0 0 0 0 0 0 0 0 0 0 0 0 0 0 0 0 0 0 0 0 0 0 0 0 0 0 0 0 0 0 0 0
0 0 0 0 0 0 0 0 0 0 0 0 0 0 0 0 0 0 0 0 0 0 0 0 0 0 0 0 0 0 0 0 0 0 0 0 0 0 0 0 0 0 0 0 0 0 0 0 0 0 0 0 0 0
0 0 0 0 0 0 0 0 0 0 0 0 0 0 0 0 0 0 0 0 0 0 0 0 0 0 0 0 0 0 0 0 0 0 0 0 0 0 0 0 0 0 0 0 0 0 0 0 0 0 0 0 0 0
0 0 0 0 0 0 0 0 0 0 0 0 0 0 0 0 0 0 0 0 0 0 0 0 0 0 0 0 0 0 0 0 0 0 0 0 0 0 0 0 0 0 0 0 0 0 0 0 0 0 0 0 0 0
0 0 0 0 0 0 0 0 0 0 0 0 0 0 0 0 0 0 0 0 0 0 0 0 0 0 0 0 0 0 0 0 0 0 0 0 0 0 0 0 0 0 0 0 0 0 0 0 0 0 0 0 0 0
-0 -0 0 0 0 0 0 0 0 0 0 0 0 0 0 0 0 0 0 0 0 0 0 0 0 0 0 0 0 0 0 0 0 0 0 0 0 0 0 0 0 0 0 0 0 0 0 0 0 0 0 0 0 0
0 0 0 0 0 0 0 -0 0 0 0 0 0 0 0 0 0 0 0 0 0 0 0 0 0 0 0 0 0 0 0 0 0 0 0 0 0 0 0 0 0 0 0 0 0 0 0 0 0 0 0 0 0 0
0 0 0 0 0 0 0 0 0 0 0 0 0 0 0 0 0 0 0 0 0 0 0 0 0 0 0 0 0 0 0 0 0 0 0 0 0 0 0 0 0 0 0 0 0 0 0 0 0 0 0 0 0 0
-0 -0 0 0 0 0 -0 0 0 0 0 0 0 0 0 0 0 0 0 0 0 0 0 0 0 0 0 0 0 0 0 0 0 0 0 0 0 0 0 0 0 0 0 0 0 0 0 0 0 0 0 0 0 0
0 0 0 -0 -0 -0 -0 -0 -0 -0 -0 -0 -0 0 0 0 0 0 0 0 0 0 0 0 0 0 0 0 0 0 0 0 0 0 0 0 0 0 0 0 0 0 0 0 0 0 0 0 0 0 0 0 0 0
0 0 0 -0 0 0 0 -0 0 0 0 -0 -0 -0 0 0 0 0 0 0 0 0 0 0 0 0 0 0 0 0 0 0 0 0 0 0 0 0 0 0 0 0 0 0 0 0 0 0 0 0 0 0 0 0
Wind_Speed_500mb
69 64 59 53 47 41 36 31 27 23 19 15 11 7 4 5 3 7 7 8 7 7 10 8 4 4 2 5 3 9 5 7 6 9 6 6 5 5 3 4 4 9 11 6 4 3 12 1 5 6 11 9 22 24
68 63 58 53 47 41 35 31 26 23 19 16 11 7 4 5 5 2 5 11 10 15 9 13 7 3 4 8 10 6 2 1 2 9 3 6 3 3 6 6 3 1 11 8 15 11 11 4 11 14 17 19 30 24
67 61 57 52 47 42 36 30 26 21 19 16 12 6 4 4 5 4 7 11 6 8 9 11 13 8 2 5 8 4 3 1 2 3 13 5 2 5 8 9 4 6 9 5 4 4 9 11 17 18 17 21 18 24
65 61 56 51 46 41 36 30 25 20 18 16 11 6 3 2 5 5 12 21 3 4 3 10 12 9 3 3 6 7 5 2 3 4 6 5 5 10 4 4 4 7 14 8 8 14 8 4 6 6 8 13 19 25
62 59 56 51 45 39 34 28 23 19 16 14 9 6 3 0 4 2 5 19 21 1 4 5 9 11 6 3 8 9 7 4 5 2 2 5 10 8 0 2 6 15 11 9 11 13 6 3 11 6 12 14 16 24
60 57 53 50 44 38 31 25 21 17 15 12 9 6 4 1 3 1 3 10 22 14 4 0 4 7 7 12 15 11 9 8 7 6 5 7 10 8 7 4 7 14 17 18 4 13 13 10 10 7 3 13 20 24
58 56 54 50 43 36 30 23 18 15 13 12 10 8 5 3 1 0 2 9 19 10 4 4 6 2 5 2 6 6 7 7 8 5 7 8 8 5 5 8 14 31 25 28 13 18 9 6 4 7 14 19 25 26
53 52 53 47 41 34 28 21 15 12 11 10 9 8 6 4 4 3 3 11 16 6 6 4 8 1 8 2 2 5 3 5 4 4 5 6 7 1 1 10 8 22 12 13 12 5 6 3 9 17 24 36 38 22
58 50 45 45 40 34 27 21 14 10 9 7 8 8 6 6 5 4 6 9 9 5 2 2 5 6 11 6 5 4 6 3 4 2 1 6 2 6 17 21 6 10 18 24 19 7 6 7 14 27 32 30 14 9
51 45 41 38 36 32 27 21 14 9 8 7 12 7 6 4 4 2 4 3 3 3 4 5 5 4 8 8 7 9 7 2 4 4 5 4 7 22 19 40 35 47 64 50 26 13 11 17 23 26 20 7 5 10
46 46 41 33 35 29 25 24 18 13 10 12 8 5 7 8 4 1 0 3 6 5 4 3 9 3 4 4 1 6 2 3 5 7 3 5 7 9 5 20 45 42 31 19 11 10 13 11 6 3 17 24 29 29
30 36 39 34 29 29 26 24 21 18 13 15 9 11 9 3 3 4 4 6 0 6 4 4 4 6 2 2 3 5 3 4 5 9 5 7 8 16 12 2 8 14 14 10 11 8 4 5 22 28 32 32 28 28
30 27 32 33 31 29 26 22 19 20 18 18 6 6 3 2 10 8 9 4 3 3 11 4 2 2 4 1 5 4 4 7 6 6 4 8 18 10 14 19 22 19 13 9 10 8 11 26 32 31 34 33 34 34
33 38 34 31 30 27 25 21 18 20 13 6 6 2 5 4 6 6 4 3 5 7 19 4 2 2 3 5 2 2 2 3 5 4 7 7 14 2 6 7 6 6 3 4 4 17 28 40 38 36 35 36 32 32
30 33 35 33 31 27 25 21 16 19 5 4 4 6 7 2 3 0 6 4 10 14 9 1 5 2 6 5 4 3 0 4 7 8 6 20 18 14 11 8 12 6 2 3 13 36 46 46 43 42 35 28 27 31
29 28 30 28 28 28 22 20 15 13 3 0 3 1 1 1 1 6 7 7 16 10 2 2 5 4 1 4 3 7 7 7 7 7 29 31 24 8 11 11 11 12 13 12 33 47 48 46 44 40 36 30 27 23
25 18 30 29 27 28 22 18 10 5 5 2 2 5 5 4 3 5 7 16 20 4 1 4 6 10 7 3 3 7 9 6 13 25 28 26 22 12 6 4 7 12 17 27 46 49 48 44 37 34 34 31 23 16
21 18 27 30 28 29 25 12 6 2 2 6 5 1 8 8 2 0 6 16 18 14 3 3 3 5 7 7 5 6 6 16 20 25 27 19 19 11 7 3 5 11 20 39 47 47 44 34 24 32 31 26 16 9
17 21 29 33 31 16 8 7 7 3 7 8 9 12 7 6 6 9 9 17 18 19 12 6 4 6 7 10 6 7 13 18 25 26 21 8 6 9 8 8 9 13 27 42 43 39 30 20 23 30 24 18 9 5
22 26 33 36 31 7 7 6 9 3 4 4 8 10 8 6 5 12 20 21 18 12 5 5 9 5 4 7 6 5 9 10 13 14 10 4 8 11 11 10 10 21 33 37 34 31 30 33 32 27 21 15 13 9
30 34 32 29 13 10 7 5 3 4 5 7 9 7 7 10 10 7 11 19 5 5 5 4 5 15 17 13 6 3 4 7 14 16 13 13 13 16 12 15 7 17 30 38 38 37 37 32 31 32 27 24 20 14
32 39 29 22 5 5 3 7 6 3 6 7 7 6 8 7 6 9 10 14 10 16 14 7 7 7 3 4 5 2 4 7 8 10 16 17 18 25 26 25 26 28 32 38 38 38 40 44 43 38 33 31 25 18
31 27 16 6 6 8 3 7 6 5 5 5 7 4 8 7 8 9 10 11 16 31 36 42 42 30 23 18 15 12 11 11 9 8 10 12 17 24 27 32 38 36 38 41 43 44 41 46 49 45 41 38 32 25
30 11 7 8 8 5 4 5 7 6 6 4 3 4 7 9 8 9 7 9 26 32 36 43 48 50 50 43 28 26 24 22 23 22 19 20 22 21 19 27 38 44 47 50 47 49 55 58 55 53 51 45 35 26
8 9 6 6 8 5 5 7 8 6 5 7 4 6 7 11 5 7 8 12 27 33 32 35 41 48 54 61 60 47 36 33 28 29 31 34 36 37 34 31 30 28 35 52 61 60 57 59 60 58 54 44 32 22
4 9 11 18 13 11 10 7 12 13 9 11 13 10 16 7 5 11 6 11 30 44 52 54 55 54 54 51 57 61 65 54 45 43 40 39 39 39 37 36 38 38 40 42 44 49 55 54 62 68 61 46 33 21
6 10 14 17 11 11 8 14 11 10 11 10 7 11 8 8 10 10 18 32 44 39 28 34 44 50 45 37 41 44 49 52 50 46 42 40 39 38 35 34 34 31 33 35 34 31 37 43 56 66 58 47 36 29
14 8 10 14 20 21 7 8 8 11 12 12 8 9 10 12 10 14 17 14 11 12 11 10 13 17 23 35 33 30 31 32 28 23 20 21 21 21 22 26 28 29 30 30 28 29 34 42 48 61 58 51 43 32
13 14 16 12 14 14 22 19 13 12 11 17 15 7 14 18 19 12 11 9 8 8 8 11 20 19 13 10 9 13 18 19 20 20 23 26 28 32 34 34 33 34 37 41 44 42 43 45 51 68 61 42 39 42
14 25 16 13 8 7 12 19 13 13 18 18 18 21 30 35 32 30 28 23 22 24 23 24 25 25 25 25 25 25 24 25 26 29 33 34 33 33 35 36 36 35 33 33 38 43 38 46 54 46 40 36 30 28
8 15 12 14 12 18 24 24 27 31 34 39 39 42 49 49 53 54 53 51 47 44 45 46 44 44 43 41 41 42 44 40 38 38 37 32 31 33 33 34 31 26 27 31 38 45 53 48 42 38 34 26 22 23
16 24 17 8 14 31 26 25 27 30 36 38 49 53 58 56 58 70 68 60 58 61 61 59 62 63 57 53 47 45 44 38 36 37 36 34 33 29 25 22 21 24 27 32 38 38 37 35 35 31 26 25 26 28
15 22 20 8 7 7 9 10 8 9 13 11 16 30 36 28 17 30 43 40 40 42 40 34 32 31 37 46 53 46 43 40 39 38 32 29 29 28 24 21 25 27 29 29 33 32 30 29 31 27 24 28 31 30
Wind_Direction_500mb
176 175 175 174 173 174 173 173 173 172 166 161 153 153 120 80 83 212 256 305 240 238 206 189 132 59 18 9 120 334 26 358 40 68 115 190 154 214 104 207 198 156 131 177 102 104 280 333 66 128 212 268 220 209
174 174 174 173 171 173 173 172 171 170 166 159 156 159 131 86 61 103 334 320 248 221 225 198 184 104 24 357 343 14 110 222 163 91 75 111 152 137 162 207 77 230 177 185 175 214 220 179 314 286 259 206 224 222
173 173 173 171 171 171 171 170 169 168 166 161 159 161 135 93 52 55 13 358 203 226 242 220 210 192 103 359 345 346 323 247 123 118 143 134 145 127 167 240 172 243 190 185 56 265 243 272 302 264 239 208 232 226
173 173 172 171 171 171 170 170 169 169 168 164 163 165 147 83 45 58 42 33 136 200 211 201 196 199 200 234 339 347 3 195 131 78 99 126 152 188 219 243 199 195 155 176 260 274 267 350 318 311 196 212 239 225
173 174 173 173 173 172 172 172 171 171 172 170 173 181 168 31 22 53 53 32 32 360 257 186 206 204 212 264 276 296 308 290 195 206 129 175 155 133 185 19 261 193 187 162 219 198 157 57 46 97 180 232 250 249
173 174 172 174 176 176 175 174 175 176 172 179 195 201 198 234 351 326 255 4 6 3 307 56 184 168 228 261 254 267 258 255 219 226 206 174 174 167 113 234 305 285 256 246 287 157 127 118 82 75 294 292 284 285
173 176 178 179 178 178 180 179 180 179 177 187 206 212 212 191 347 9 74 343 356 10 321 349 0 140 305 255 215 220 235 227 219 223 207 190 186 213 112 178 326 345 313 264 231 174 147 138 46 317 307 307 307 308
171 180 181 179 180 181 184 185 185 185 187 195 207 210 205 175 146 173 337 346 353 357 26 79 282 311 10 331 218 349 204 202 212 237 188 174 149 166 197 261 28 35 351 345 221 170 97 186 276 288 292 299 302 298
180 179 179 178 180 184 193 201 208 213 212 205 191 180 171 176 177 225 294 321 338 0 354 88 138 231 348 20 341 339 353 25 296 252 265 150 6 227 212 158 193 350 7 273 255 217 188 242 290 302 313 320 281 247
161 182 185 184 183 187 198 208 212 211 202 185 162 151 177 172 176 227 281 309 297 268 241 217 205 271 347 18 41 357 14 48 359 287 335 73 253 256 253 231 219 194 198 230 223 241 285 304 313 321 316 270 201 108
154 161 167 175 174 182 202 210 207 196 182 160 153 151 153 152 166 194 293 31 345 312 255 270 226 275 16 54 277 21 179 352 32 280 72 326 287 257 201 230 222 227 232 239 240 276 292 314 344 98 115 114 113 112
154 159 160 166 167 178 176 177 178 178 168 167 143 123 131 143 76 71 320 322 181 243 292 266 302 229 262 2 34 12 87 27 254 334 57 319 262 345 336 315 200 198 161 183 228 251 310 132 147 138 125 121 117 108
173 175 170 175 176 174 169 166 167 161 146 142 137 149 101 63 49 185 197 249 289 349 354 326 292 211 192 27 72 57 49 249 318 40 250 235 312 10 73 108 134 153 175 206 222 233 170 161 154 146 136 129 127 122
169 181 194 189 184 176 174 171 161 154 143 135 151 11 150 247 247 193 191 188 355 316 343 334 189 68 61 87 84 96 269 32 17 352 250 260 349 11 132 149 184 185 255 260 265 174 169 164 152 144 138 135 132 124
169 175 181 186 189 187 184 181 173 166 132 138 152 193 209 251 238 22 331 7 18 333 338 164 94 74 30 93 19 51 310 259 206 227 245 339 323 265 243 262 241 234 241 243 196 176 165 155 147 142 139 139 137 126
171 174 178 173 178 189 186 184 181 173 22 39 208 134 229 299 348 94 56 57 359 343 360 121 94 73 268 136 114 224 132 223 254 237 349 345 348 293 249 266 224 214 201 195 180 169 159 154 149 142 143 142 132 126
167 176 176 172 164 167 171 165 140 164 208 249 226 236 237 264 227 56 37 16 354 299 225 130 155 201 126 90 250 178 201 231 307 316 325 322 328 318 278 213 206 207 194 187 175 170 162 155 150 153 148 145 138 123
166 166 170 166 155 151 145 136 149 196 266 255 269 313 207 212 271 27 14 6 8 349 237 256 164 158 181 180 247 243 274 339 347 340 325 281 265 270 211 217 222 212 198 184 179 170 166 161 173 175 161 154 148 128
148 152 156 158 155 131 112 133 160 175 261 284 278 265 257 223 239 291 325 350 344 337 285 248 190 196 219 209 218 336 348 344 340 347 339 314 226 187 171 157 181 188 192 183 183 186 177 174 188 181 172 165 184 178
136 146 155 163 164 112 106 101 148 178 267 278 272 265 261 253 227 278 301 321 328 317 248 231 224 208 146 106 120 42 352 322 322 335 321 244 188 184 184 172 173 191 194 190 189 193 189 187 191 192 191 196 220 251
145 146 150 165 143 76 94 141 176 231 263 270 307 294 268 265 263 249 282 295 306 248 274 312 101 102 90 85 59 276 279 344 324 272 307 280 217 192 184 175 184 238 223 214 212 207 208 221 220 213 216 222 229 240
150 153 146 143 114 174 167 188 202 233 242 261 280 239 281 282 257 247 255 214 216 238 254 236 269 311 295 180 159 52 325 274 306 323 266 255 247 231 232 242 239 226 228 234 232 232 232 223 221 221 223 228 235 247
144 153 132 123 172 186 184 209 214 225 226 231 195 216 243 235 240 235 244 235 241 244 246 255 264 270 282 289 273 266 275 297 294 295 305 288 261 258 259 248 234 234 240 242 244 246 244 236 229 227 229 232 236 242
136 131 161 186 200 218 194 218 217 233 247 259 176 245 234 223 210 224 241 235 252 259 258 258 261 263 263 265 268 261 262 267 266 263 265 273 270 272 276 262 254 253 244 242 249 251 246 238 235 231 232 234 232 237
142 178 197 192 196 188 218 211 197 225 229 220 238 271 258 210 190 241 219 249 262 262 268 270 271 262 260 257 254 255 250 264 267 268 251 259 263 267 272 276 277 278 272 255 252 253 252 243 236 237 234 232 233 241
209 210 199 192 191 189 213 201 196 202 192 197 228 223 207 217 257 256 242 282 267 270 265 263 266 266 271 267 256 249 249 254 258 264 257 260 264 266 268 271 275 278 283 281 276 266 265 255 234 228 224 219 216 216
221 207 210 219 222 211 266 255 244 188 186 218 204 180 186 217 237 261 255 262 257 260 269 276 271 264 269 274 256 253 249 246 249 255 258 262 265 264 264 269 274 279 280 283 280 271 269 263 243 226 218 210 211 233
234 236 218 209 214 218 232 271 209 208 224 219 185 186 205 207 229 246 272 275 272 264 270 297 307 294 272 251 258 261 242 228 221 224 228 238 250 262 269 276 280 284 286 285 281 274 266 264 250 221 210 212 222 237
225 206 233 253 197 188 211 211 232 225 206 191 184 217 236 246 259 275 270 256 245 259 264 282 293 300 302 299 263 238 239 246 253 255 255 260 266 273 280 280 275 274 274 279 282 278 267 255 225 212 213 230 245 247
236 212 207 205 179 229 231 217 241 228 215 233 248 252 258 263 269 275 279 276 270 266 270 266 263 266 273 275 270 264 258 255 257 261 266 274 283 283 278 278 278 278 272 270 269 259 232 209 202 209 218 226 242 243
239 202 216 217 225 233 257 271 269 267 267 266 263 259 263 272 273 270 270 269 269 267 266 266 268 267 267 266 262 259 257 259 264 265 263 266 273 277 279 278 275 276 268 269 261 237 212 209 231 237 220 218 219 233
214 219 218 224 258 276 274 269 272 260 263 261 262 262 262 262 264 279 276 275 273 272 272 271 267 265 265 265 261 258 258 255 256 261 258 261 272 265 269 262 256 251 235 225 233 241 247 232 210 198 194 211 226 227
219 220 218 238 243 251 237 225 251 266 243 248 256 257 255 247 248 273 287 286 279 277 274 268 270 271 266 260 249 249 248 251 254 250 253 260 260 263 267 255 239 247 249 254 243 229 230 243 224 211 229 234 224 227
Wind_Speed_850mb
69 64 59 53 47 41 36 31 27 23 19 15 11 7 4 5 3 7 7 8 7 7 10 8 4 4 2 5 3 9 5 7 6 9 6 6 5 5 3 4 4 9 11 6 4 3 12 1 5 6 11 9 22 24
68 63 58 53 47 41 35 31 26 23 19 16 11 7 4 5 5 2 5 11 10 15 9 13 7 3 4 8 10 6 2 1 2 9 3 6 3 3 6 6 3 1 11 8 15 11 11 4 11 14 17 19 30 24
67 61 57 52 47 42 36 30 26 21 19 16 12 6 4 4 5 4 7 11 6 8 9 11 13 8 2 5 8 4 3 1 2 3 13 5 2 5 8 9 4 6 9 5 4 4 9 11 17 18 17 21 18 24
65 61 56 51 46 41 36 30 25 20 18 16 11 6 3 2 5 5 12 21 3 4 3 10 12 9 3 3 6 7 5 2 3 4 6 5 5 10 4 4 4 7 14 8 8 14 8 4 6 6 8 13 19 25
62 59 56 51 45 39 34 28 23 19 16 14 9 6 3 0 4 2 5 19 21 1 4 5 9 11 6 3 8 9 7 4 5 2 2 5 10 8 0 2 6 15 11 9 11 13 6 3 11 6 12 14 16 24
60 57 53 50 44 38 31 25 21 17 15 12 9 6 4 1 3 1 3 10 22 14 4 0 4 7 7 12 15 11 9 8 7 6 5 7 10 8 7 4 7 14 17 18 4 13 13 10 10 7 3 13 20 24
58 56 54 50 43 36 30 23 18 15 13 12 10 8 5 3 1 0 2 9 19 10 4 4 6 2 5 2 6 6 7 7 8 5 7 8 8 5 5 8 14 31 25 28 13 18 9 6 4 7 14 19 25 26
53 52 53 47 41 34 28 21 15 12 11 10 9 8 6 4 4 3 3 11 16 6 6 4 8 1 8 2 2 5 3 5 4 4 5 6 7 1 1 10 8 22 12 13 12 5 6 3 9 17 24 36 38 22
58 50 45 45 40 34 27 21 14 10 9 7 8 8 6 6 5 4 6 9 9 5 2 2 5 6 11 6 5 4 6 3 4 2 1 6 2 6 17 21 6 10 18 24 19 7 6 7 14 27 32 30 14 9
51 45 41 38 36 32 27 21 14 9 8 7 12 7 6 4 4 2 4 3 3 3 4 5 5 4 8 8 7 9 7 2 4 4 5 4 7 22 19 40 35 47 64 50 26 13 11 17 23 26 20 7 5 10
46 46 41 33 35 29 25 24 18 13 10 12 8 5 7 8 4 1 0 3 6 5 4 3 9 3 4 4 1 6 2 3 5 7 3 5 7 9 5 20 45 42 31 19 11 10 13 11 6 3 17 24 29 29
30 36 39 34 29 29 26 24 21 18 13 15 9 11 9 3 3 4 4 6 0 6 4 4 4 6 2 2 3 5 3 4 5 9 5 7 8 16 12 2 8 14 14 10 11 8 4 5 22 28 32 32 28 28
30 27 32 33 31 29 26 22 19 20 18 18 6 6 3 2 10 8 9 4 3 3 11 4 2 2 4 1 5 4 4 7 6 6 4 8 18 10 14 19 22 19 13 9 10 8 11 26 32 31 34 33 34 34
33 38 34 31 30 27 25 21 18 20 13 6 6 2 5 4 6 6 4 3 5 7 19 4 2 2 3 5 2 2 2 3 5 4 7 7 14 2 6 7 6 6 3 4 4 17 28 40 38 36 35 36 32 32
30 33 35 33 31 27 25 21 16 19 5 4 4 6 7 2 3 0 6 4 10 14 9 1 5 2 6 5 4 3 0 4 7 8 6 20 18 14 11 8 12 6 2 3 13 36 46 46 43 42 35 28 27 31
29 28 30 28 28 28 22 20 15 13 3 0 3 1 1 1 1 6 7 7 16 10 2 2 5 4 1 4 3 7 7 7 7 7 29 31 24 8 11 11 11 12 13 12 33 47 48 46 44 40 36 30 27 23
25 18 30 29 27 28 22 18 10 5 5 2 2 5 5 4 3 5 7 16 20 4 1 4 6 10 7 3 3 7 9 6 13 25 28 26 22 12 6 4 7 12 17 27 46 49 48 44 37 34 34 31 23 16
21 18 27 30 28 29 25 12 6 2 2 6 5 1 8 8 2 0 6 16 18 14 3 3 3 5 7 7 5 6 6 16 20 25 27 19 19 11 7 3 5 11 20 39 47 47 44 34 24 32 31 26 16 9
17 21 29 33 31 16 8 7 7 3 7 8 9 12 7 6 6 9 9 17 18 19 12 6 4 6 7 10 6 7 13 18 25 26 21 8 6 9 8 8 9 13 27 42 43 39 30 20 23 30 24 18 9 5
22 26 33 36 31 7 7 6 9 3 4 4 8 10 8 6 5 12 20 21 18 12 5 5 9 5 4 7 6 5 9 10 13 14 10 4 8 11 11 10 10 21 33 37 34 31 30 33 32 27 21 15 13 9
30 34 32 29 13 10 7 5 3 4 5 7 9 7 7 10 10 7 11 19 5 5 5 4 5 15 17 13 6 3 4 7 14 16 13 13 13 16 12 15 7 17 30 38 38 37 37 32 31 32 27 24 20 14
32 39 29 22 5 5 3 7 6 3 6 7 7 6 8 7 6 9 10 14 10 16 14 7 7 7 3 4 5 2 4 7 8 10 16 17 18 25 26 25 26 28 32 38 38 38 40 44 43 38 33 31 25 18
31 27 16 6 6 8 3 7 6 5 5 5 7 4 8 7 8 9 10 11 16 31 36 42 42 30 23 18 15 12 11 11 9 8 10 12 17 24 27 32 38 36 38 41 43 44 41 46 49 45 41 38 32 25
30 11 7 8 8 5 4 5 7 6 6 4 3 4 7 9 8 9 7 9 26 32 36 43 48 50 50 43 28 26 24 22 23 22 19 20 22 21 19 27 38 44 47 50 47 49 55 58 55 53 51 45 35 26
8 9 6 6 8 5 5 7 8 6 5 7 4 6 7 11 5 7 8 12 27 33 32 35 41 48 54 61 60 47 36 33 28 29 31 34 36 37 34 31 30 28 35 52 61 60 57 59 60 58 54 44 32 22
4 9 11 18 13 11 10 7 12 13 9 11 13 10 16 7 5 11 6 11 30 44 52 54 55 54 54 51 57 61 65 54 45 43 40 39 39 39 37 36 38 38 40 42 44 49 55 54 62 68 61 46 33 21
6 10 14 17 11 11 8 14 11 10 11 10 7 11 8 8 10 10 18 32 44 39 28 34 44 50 45 37 41 44 49 52 50 46 42 40 39 38 35 34 34 31 33 35 34 31 37 43 56 66 58 47 36 29
14 8 10 14 20 21 7 8 8 11 12 12 8 9 10 12 10 14 17 14 11 12 11 10 13 17 23 35 33 30 31 32 28 23 20 21 21 21 22 26 28 29 30 30 28 29 34 42 48 61 58 51 43 32
13 14 16 12 14 14 22 19 13 12 11 17 15 7 14 18 19 12 11 9 8 8 8 11 20 19 13 10 9 13 18 19 20 20 23 26 28 32 34 34 33 34 37 41 44 42 43 45 51 68 61 42 39 42
14 25 16 13 8 7 12 19 13 13 18 18 18 21 30 35 32 30 28 23 22 24 23 24 25 25 25 25 25 25 24 25 26 29 33 34 33 33 35 36 36 35 33 33 38 43 38 46 54 46 40 36 30 28
8 15 12 14 12 18 24 24 27 31 34 39 39 42 49 49 53 54 53 51 47 44 45 46 44 44 43 41 41 42 44 40 38 38 37 32 31 33 33 34 31 26 27 31 38 45 53 48 42 38 34 26 22 23
16 24 17 8 14 31 26 25 27 30 36 38 49 53 58 56 58 70 68 60 58 61 61 59 62 63 57 53 47 45 44 38 36 37 36 34 33 29 25 22 21 24 27 32 38 38 37 35 35 31 26 25 26 28
15 22 20 8 7 7 9 10 8 9 13 11 16 30 36 28 17 30 43 40 40 42 40 34 32 31 37 46 53 46 43 40 39 38 32 29 29 28 24 21 25 27 29 29 33 32 30 29 31 27 24 28 31 30
Wind_Direction_850mb
176 175 175 174 173 174 173 173 173 172 166 161 153 153 120 80 83 212 256 305 240 238 206 189 132 59 18 9 120 334 26 358 40 68 115 190 154 214 104 207 198 156 131 177 102 104 280 333 66 128 212 268 220 209
174 174 174 173 171 173 173 172 171 170 166 159 156 159 131 86 61 103 334 320 248 221 225 198 184 104 24 357 343 14 110 222 163 91 75 111 152 137 162 207 77 230 177 185 175 214 220 179 314 286 259 206 224 222
173 173 173 171 171 171 171 170 169 168 166 161 159 161 135 93 52 55 13 358 203 226 242 220 210 192 103 359 345 346 323 247 123 118 143 134 145 127 167 240 172 243 190 185 56 265 243 272 302 264 239 208 232 226
173 173 172 171 171 171 170 170 169 169 168 164 163 165 147 83 45 58 42 33 136 200 211 201 196 199 200 234 339 347 3 195 131 78 99 126 152 188 219 243 199 195 155 176 260 274 267 350 318 311 196 212 239 225
173 174 173 173 173 172 172 172 171 171 172 170 173 181 168 31 22 53 53 32 32 360 257 186 206 204 212 264 276 296 308 290 195 206 129 175 155 133 185 19 261 193 187 162 219 198 157 57 46 97 180 232 250 249
173 174 172 174 176 176 175 174 175 176 172 179 195 201 198 234 351 326 255 4 6 3 307 56 184 168 228 261 254 267 258 255 219 226 206 174 174 167 113 234 305 285 256 246 287 157 127 118 82 75 294 292 284 285
173 176 178 179 178 178 180 179 180 179 177 187 206 212 212 191 347 9 74 343 356 10 321 349 0 140 305 255 215 220 235 227 219 223 207 190 186 213 112 178 326 345 313 264 231 174 147 138 46 317 307 307 307 308
171 180 181 179 180 181 184 185 185 185 187 195 207 210 205 175 146 173 337 346 353 357 26 79 282 311 10 331 218 349 204 202 212 237 188 174 149 166 197 261 28 35 351 345 221 170 97 186 276 288 292 299 302 298
180 179 179 178 180 184 193 201 208 213 212 205 191 180 171 176 177 225 294 321 338 0 354 88 138 231 348 20 341 339 353 25 296 252 265 150 6 227 212 158 193 350 7 273 255 217 188 242 290 302 313 320 281 247
161 182 185 184 183 187 198 208 212 211 202 185 162 151 177 172 176 227 281 309 297 268 241 217 205 271 347 18 41 357 14 48 359 287 335 73 253 256 253 231 219 194 198 230 223 241 285 304 313 321 316 270 201 108
154 161 167 175 174 182 202 210 207 196 182 160 153 151 153 152 166 194 293 31 345 312 255 270 226 275 16 54 277 21 179 352 32 280 72 326 287 257 201 230 222 227 232 239 240 276 292 314 344 98 115 114 113 112
154 159 160 166 167 178 176 177 178 178 168 167 143 123 131 143 76 71 320 322 181 243 292 266 302 229 262 2 34 12 87 27 254 334 57 319 262 345 336 315 200 198 161 183 228 251 310 132 147 138 125 121 117 108
173 175 170 175 176 174 169 166 167 161 146 142 137 149 101 63 49 185 197 249 289 349 354 326 292 211 192 27 72 57 49 249 318 40 250 235 312 10 73 108 134 153 175 206 222 233 170 161 154 146 136 129 127 122
169 181 194 189 184 176 174 171 161 154 143 135 151 11 150 247 247 193 191 188 355 316 343 334 189 68 61 87 84 96 269 32 17 352 250 260 349 11 132 149 184 185 255 260 265 174 169 164 152 144 138 135 132 124
169 175 181 186 189 187 184 181 173 166 132 138 152 193 209 251 238 22 331 7 18 333 338 164 94 74 30 93 19 51 310 259 206 227 245 339 323 265 243 262 241 234 241 243 196 176 165 155 147 142 139 139 137 126
171 174 178 173 178 189 186 184 181 173 22 39 208 134 229 299 348 94 56 57 359 343 360 121 94 73 268 136 114 224 132 223 254 237 349 345 348 293 249 266 224 214 201 195 180 169 159 154 149 142 143 142 132 126
167 176 176 172 164 167 171 165 140 164 208 249 226 236 237 264 227 56 37 16 354 299 225 130 155 201 126 90 250 178 201 231 307 316 325 322 328 318 278 213 206 207 194 187 175 170 162 155 150 153 148 145 138 123
166 166 170 166 155 151 145 136 149 196 266 255 269 313 207 212 271 27 14 6 8 349 237 256 164 158 181 180 247 243 274 339 347 340 325 281 265 270 211 217 222 212 198 184 179 170 166 161 173 175 161 154 148 128
148 152 156 158 155 131 112 133 160 175 261 284 278 265 257 223 239 291 325 350 344 337 285 248 190 196 219 209 218 336 348 344 340 347 339 314 226 187 171 157 181 188 192 183 183 186 177 174 188 181 172 165 184 178
136 146 155 163 164 112 106 101 148 178 267 278 272 265 261 253 227 278 301 321 328 317 248 231 224 208 146 106 120 42 352 322 322 335 321 244 188 184 184 172 173 191 194 190 189 193 189 187 191 192 191 196 220 251
145 146 150 165 143 76 94 141 176 231 263 270 307 294 268 265 263 249 282 295 306 248 274 312 101 102 90 85 59 276 279 344 324 272 307 280 217 192 184 175 184 238 223 214 212 207 208 221 220 213 216 222 229 240
150 153 146 143 114 174 167 188 202 233 242 261 280 239 281 282 257 247 255 214 216 238 254 236 269 311 295 180 159 52 325 274 306 323 266 255 247 231 232 242 239 226 228 234 232 232 232 223 221 221 223 228 235 247
144 153 132 123 172 186 184 209 214 225 226 231 195 216 243 235 240 235 244 235 241 244 246 255 264 270 282 289 273 266 275 297 294 295 305 288 261 258 259 248 234 234 240 242 244 246 244 236 229 227 229 232 236 242
136 131 161 186 200 218 194 218 217 233 247 259 176 245 234 223 210 224 241 235 252 259 258 258 261 263 263 265 268 261 262 267 266 263 265 273 270 272 276 262 254 253 244 242 249 251 246 238 235 231 232 234 232 237
142 178 197 192 196 188 218 211 197 225 229 220 238 271 258 210 190 241 219 249 262 262 268 270 271 262 260 257 254 255 250 264 267 268 251 259 263 267 272 276 277 278 272 255 252 253 252 243 236 237 234 232 233 241
209 210 199 192 191 189 213 201 196 202 192 197 228 223 207 217 257 256 242 282 267 270 265 263 266 266 271 267 256 249 249 254 258 264 257 260 264 266 268 271 275 278 283 281 276 266 265 255 234 228 224 219 216 216
221 207 210 219 222 211 266 255 244 188 186 218 204 180 186 217 237 261 255 262 257 260 269 276 271 264 269 274 256 253 249 246 249 255 258 262 265 264 264 269 274 279 280 283 280 271 269 263 243 226 218 210 211 233
234 236 218 209 214 218 232 271 209 208 224 219 185 186 205 207 229 246 272 275 272 264 270 297 307 294 272 251 258 261 242 228 221 224 228 238 250 262 269 276 280 284 286 285 281 274 266 264 250 221 210 212 222 237
225 206 233 253 197 188 211 211 232 225 206 191 184 217 236 246 259 275 270 256 245 259 264 282 293 300 302 299 263 238 239 246 253 255 255 260 266 273 280 280 275 274 274 279 282 278 267 255 225 212 213 230 245 247
236 212 207 205 179 229 231 217 241 228 215 233 248 252 258 263 269 275 279 276 270 266 270 266 263 266 273 275 270 264 258 255 257 261 266 274 283 283 278 278 278 278 272 270 269 259 232 209 202 209 218 226 242 243
239 202 216 217 225 233 257 271 269 267 267 266 263 259 263 272 273 270 270 269 269 267 266 266 268 267 267 266 262 259 257 259 264 265 263 266 273 277 279 278 275 276 268 269 261 237 212 209 231 237 220 218 219 233
214 219 218 224 258 276 274 269 272 260 263 261 262 262 262 262 264 279 276 275 273 272 272 271 267 265 265 265 261 258 258 255 256 261 258 261 272 265 269 262 256 251 235 225 233 241 247 232 210 198 194 211 226 227
219 220 218 238 243 251 237 225 251 266 243 248 256 257 255 247 248 273 287 286 279 277 274 268 270 271 266 260 249 249 248 251 254 250 253 260 260 263 267 255 239 247 249 254 243 229 230 243 224 211 229 234 224 227